Regional Weather Roundup
Issued by NWS Green Bay, WI

Home | Current Version | Previous Version | Text Only | Print | Product List | Glossary On
Versions: 1 2 3 4 5 6 7 8 9 10 11 12 13 14 15 16 17 18 19 20 21 22 23 24 25 26 27 28 29 30 31 32 33 34 35 36 37 38 39 40 41 42 43 44 45 46 47 48 49 50
000
ASUS43 KGRB 281900
RWRGRB

NORTH-CENTRAL AND NORTHEAST WISCONSIN REGIONAL WEATHER ROUNDUP
NATIONAL WEATHER SERVICE GREEN BAY WI
200 PM CDT SUN AUG 28 2016

WIZ005-009-010>012-018-019-282000-
NORTH CENTRAL WISCONSIN

CITY           SKY/WX    TMP DP  RH WIND       PRES   REMARKS
IRONWOOD       CLOUDY    73  60  63 VRB6      30.20F
MANITOWISH WTR NOT AVBL
ARBOR VITAE    NOT AVBL
EAGLE RIVER    NOT AVBL
LAND O LAKES   NOT AVBL
RHINELANDER    SUNNY     76  61  59 S6        30.22F
PHILLIPS       CLOUDY    71  63  75 SW5       30.21S
ANTIGO         NOT AVBL
TOMAHAWK       NOT AVBL
MERRILL        MOSUNNY   75  63  65 W6        30.22S
$$

WIZ013-073-282000-
NORTHEAST WISCONSIN

CITY           SKY/WX    TMP DP  RH WIND       PRES   REMARKS
IRON MOUNTAIN  SUNNY     78  57  48 VRB3      30.19F
MARINETTE      SUNNY    N/A N/A N/A S10       30.21S
$$

WIZ017-030-035>037-045-282000-
CENTRAL WISCONSIN

CITY           SKY/WX    TMP DP  RH WIND       PRES   REMARKS
MEDFORD        NOT AVBL
WAUSAU         MOSUNNY   73  61  65 S7        30.21F
MOSINEE        NOT AVBL
MARSHFIELD     MOSUNNY   76  63  64 S5        30.21F
WISC RAPIDS    PTSUNNY   78  63  59 S6        30.22F
STEVENS POINT  NOT AVBL
WAUPACA        NOT AVBL
SHAWANO        NOT AVBL
CLINTONVILLE   MOSUNNY   77  59  53 SW5       30.21F
WAUTOMA        PTSUNNY   78  65  63 CALM      30.21F
$$

WIZ038-039-048-051-282000-
FOX VALLEY

CITY           SKY/WX    TMP DP  RH WIND       PRES   REMARKS
NWS GREEN BAY  MOSUNNY   76  65  68 VRB6      30.21F
APPLETON       PTSUNNY   75  61  60 VRB3      30.21S
OSHKOSH        MOSUNNY   76  65  68 E6        30.21F
FOND DU LAC    PTSUNNY   77  66  68 VRB5      30.21F
$$

WIZ022-050-052-282000-
EAST CENTRAL WISCONSIN

CITY           SKY/WX    TMP DP  RH WIND       PRES   REMARKS
EPHRAIM        NOT AVBL
WASHINGTON ISL NOT AVBL
STURGEON BAY   MOSUNNY   76  63  64 CALM      30.22F
MANITOWOC      NOT AVBL
SHEBOYGAN      MOSUNNY   78  66  66 E9        30.20F
$$

LMZ563-521-522-541>543-282000-
LAKESHORE

STATION/POSITION TIME  TEMP    WIND        PRES    VSBY  WAVE
                       AIR SEA DIR/SP/G                  HT/PER
                 (UTC) (F)     (DEG/KT/KT) (MB)    (MI)  (FT/S)
SHEBOYGAN LKSHOR 1800   66     170/  8/  8 1022.9F
KEWAUNEE LKSHORE 1800   65     180/  4/  5 1022.9S
NORTHPORT PIER   1800   72     340/  6/  6 1022.7S
N MID LAKE BUOY  1750   69 71  240/  6/  8 1022.5R         1/ 3
CHAMBERS ISLAND  1800   74     190/  4/  7 1022.7S
MENOMINEE LKSHOR 1800   71     160/  9/ 12 1022.2R
$$




USA.gov is the U.S. government's official web portal to all federal, state and local government web resources and services.